Meteopurmerend
purmerend
Purmerend - Baaienwijk



My webcam  My webcam


Onweer radar Meer informatie blitzortung!


Regen radar Meer informatie rain snow radar


Bezoek onze andere website:

CandyAppleRed WebdesignWebdesign Purmerend Candy Apple Red

MeteopurmerendBlog

Template documentation
and downloads



Het weer levert geen direct gevaar op.    Er zijn geen waarschuwingen afgegeven.

15 daagse weersverwachting Swansea (GB)

  • Overzicht
  • Per uur
  • 15 dagen
  • Extra
  • Vergelijk
  • Kaarten
  • Dagkaart
  • Meer »
  • Info
  • Statistieken
  • Directe link
    Temp 6h Neerslag Wind  
 07:08     17:50    Daglengte: 10:42 Vandaag
06:00
 
8
12:00
 
8
18:00
 
5
 07:06     17:51    Daglengte: 10:45 Morgen
00:00
3.3 mm
6
06:00
12.6 mm
5
12:00
2.1 mm
9
18:00
 
4
 07:04     17:53    Daglengte: 10:49 Vrijdag 28 Feb
00:00
 
2
06:00
3.1 mm
6
12:00
20.4 mm
7
18:00
10°
23.5 mm
8
 07:02     17:55    Daglengte: 10:53 Zaterdag 29 Feb
00:00
10°
44.5 mm
9
Locatie info
Region: Wales
Latitude: 51.6231°N
Longitude: -3.9409°E
18 masl
Postcode: SA1 2
Temp/Neerslag /Baro Onweer/DauwpuntSneeuw
    Temp Baro 1h Neerslag Dauwpunt Wind UV BewolkingSneeuw  
 07:08     17:50    Daglengte: 10:42 Vandaag
06:00
Voelt als: -1.2°
1003.6 hPa
14%
-0.4°
8
Windvlaag: -1.1 m/s
7%2 cm
07:00
Voelt als: -1.0°
1004.5 hPa
29%
-0.4°
7
Windvlaag: -1 m/s
10%2 cm
08:00
Voelt als: -0.6°
1005.6 hPa
34%
-0.1°
7
Windvlaag: -0.3 m/s
23%2 cm
09:00
Voelt als: 0.4°
1006.5 hPa
32%
0.5°
8
Windvlaag: -0.8 m/s
17%2 cm
10:00
Voelt als: 0.9°
1007.6 hPa
32%
0.3°
9
Windvlaag: -1.6 m/s
11%2 cm
11:00
Voelt als: 1.4°
1008.3 hPa
27%
-0.1°
9
Windvlaag: -1.9 m/s
15%2 cm
12:00
Voelt als: 2.0°
1008.8 hPa
25%
-0.6°
8
Windvlaag: -2 m/s
30%1 cm
13:00
Voelt als: 2.7°
1009.1 hPa
26%
-0.8°
8
Windvlaag: -1.7 m/s
22%1 cm
14:00
Voelt als: 2.9°
1009.1 hPa
61%
-1.0°
7
Windvlaag: -0.9 m/s
15%1 cm
15:00
Voelt als: 2.8°
1008.9 hPa
62%
-1.2°
7
Windvlaag: 0 m/s
30%1 cm
16:00
Voelt als: 2.7°
1008.8 hPa
26%
-0.3°
7
Windvlaag: 0.4 m/s
39%1 cm
17:00
Voelt als: 2.3°
1008.7 hPa
23%
0.6°
6
Windvlaag: 0.5 m/s
52%1 cm
18:00
Voelt als: 2.1°
1008.5 hPa
25%
0.5°
5
Windvlaag: 0.6 m/s
53%1 cm
19:00
Voelt als: 2.2°
1008.2 hPa
27%
0.8°
4
Windvlaag: 1.5 m/s
79%1 cm
20:00
Voelt als: 2.4°
1007.5 hPa
20%
1.2°
4
Windvlaag: 1.7 m/s
89%1 cm
21:00
Voelt als: 2.5°
1006.4 hPa
31%
1.6°
4
Windvlaag: 2.9 m/s
91%1 cm
22:00
Voelt als: 2.3°
1005.3 hPa 0.9 mm
82%
2.2°
4
Windvlaag: 3 m/s
91%1 cm
23:00
Voelt als: 2.4°
1003.8 hPa 0.9 mm
82%
2.8°
5
Windvlaag: 4 m/s
91%1 cm
 07:06     17:51    Daglengte: 10:45 Morgen
00:00
Voelt als: 1.9°
1002.2 hPa 1.4 mm
82%
3.2°
6
Windvlaag: 4.2 m/s
91%1 cm
01:00
Voelt als: 1.3°
1000.6 hPa 1.4 mm
82%
3.3°
6
Windvlaag: 5.3 m/s
91%1 cm
02:00
Voelt als: 1.1°
998.8 hPa 1.7 mm
82%
2.9°
5
Windvlaag: 4.7 m/s
91%1 cm
03:00
Voelt als: 0.5°
996.5 hPa 2.2 mm
82%
2.8°
5
Windvlaag: 3.2 m/s
91%1 cm
04:00
Voelt als: 0.1°
995.1 hPa 2.6 mm
82%
2.9°
4
Windvlaag: 2.1 m/s
91%1 cm
05:00
Voelt als: -0.1°
994.3 hPa 2.5 mm
82%
2.7°
5
Windvlaag: 0.7 m/s
91%2 cm
06:00
Voelt als: -0.5°
994.5 hPa 2.2 mm
82%
2.1°
5
Windvlaag: -2.6 m/s
90%3 cm
07:00
Voelt als: -0.7°
995.5 hPa 2.1 mm
82%
2.2°
6
Windvlaag: -2.9 m/s
82%3 cm
08:00
Voelt als: -1.2°
997.1 hPa
82%
2.0°
7
Windvlaag: -3.8 m/s
31%3 cm
09:00
Voelt als: -0.9°
998.8 hPa
20%
2.0°
8
Windvlaag: -4.1 m/s
15%3 cm
10:00
Voelt als: 0.4°
1000.3 hPa
23%
1.7°
8
Windvlaag: -3.9 m/s
38%3 cm
11:00
Voelt als: 0.9°
1001.7 hPa
28%
1.7°
9
Windvlaag: -3.9 m/s
15%2 cm
12:00
Voelt als: 1.4°
1003.4 hPa
17%
1.0°
9
Windvlaag: -4.1 m/s
9%2 cm
13:00
Voelt als: 1.8°
1004.6 hPa
15%
0.4°
9
Windvlaag: -3.9 m/s
8%2 cm
14:00
Voelt als: 2.0°
1005.7 hPa
14%
-0.1°
8
Windvlaag: -3.3 m/s
2%2 cm
15:00
Voelt als: 2.4°
1007.0 hPa
14%
-0.7°
7
Windvlaag: -3 m/s
3%2 cm
16:00
Voelt als: 2.3°
1008.2 hPa
14%
-0.7°
7
Windvlaag: -2.5 m/s
6%2 cm
17:00
Voelt als: 2.2°
1009.3 hPa
14%
-0.1°
6
Windvlaag: -1.6 m/s
8%2 cm
18:00
Voelt als: 2.1°
1010.1 hPa
14%
0.4°
4
Windvlaag: -0.8 m/s
8%2 cm
19:00
Voelt als: 1.8°
1010.9 hPa
14%
0.8°
3
Windvlaag: 0.1 m/s
5%2 cm
20:00
Voelt als: 1.6°
1011.6 hPa
14%
0.7°
3
Windvlaag: 0.8 m/s
15%2 cm
21:00
Voelt als: 1.4°
1012.1 hPa
14%
0.7°
3
Windvlaag: 0.8 m/s
17%2 cm
22:00
Voelt als: 1.9°
1012.5 hPa
14%
0.3°
3
Windvlaag: 0.8 m/s
29%2 cm
23:00
Voelt als: 3.0°
1012.5 hPa
14%
0.4°
2
Windvlaag: 0.7 m/s
66%2 cm
 07:04     17:53    Daglengte: 10:49 Vrijdag 28 Feb
00:00
Voelt als: 2.5°
1012.4 hPa
52%
0.8°
2
Windvlaag: 1 m/s
86%2 cm
01:00
Voelt als: 2.1°
1012.1 hPa
19%
1.3°
4
Windvlaag: 2.4 m/s
90%2 cm
02:00
Voelt als: 1.4°
1011.5 hPa
53%
2.2°
5
Windvlaag: 2.3 m/s
90%2 cm
03:00
Voelt als: 1.2°
1011.0 hPa
23%
2.5°
6
Windvlaag: 3.9 m/s
99%2 cm
04:00
Voelt als: 1.5°
1010.1 hPa
34%
2.1°
5
Windvlaag: 4.2 m/s
100%2 cm
05:00
Voelt als: 1.5°
1009.1 hPa
100%
1.1°
5
Windvlaag: 4.5 m/s
100%2 cm
06:00
Voelt als: 1.1°
1008.1 hPa 3.1 mm
100%
0.6°
6
Windvlaag: 5.5 m/s
100%2 cm
07:00
Voelt als: 1.0°
1006.5 hPa 3.4 mm
100%
1.9°
6
Windvlaag: 4.8 m/s
100%2 cm
08:00
Voelt als: 1.0°
1005.2 hPa 2.8 mm
100%
2.4°
7
Windvlaag: 5 m/s
100%2 cm
09:00
Voelt als: 0.9°
1004.0 hPa 3.2 mm
100%
2.6°
8
Windvlaag: 5.2 m/s
100%2 cm
10:00
Voelt als: 0.8°
1002.6 hPa 3.5 mm
100%
3.2°
9
Windvlaag: 5.3 m/s
100%1 cm
11:00
Voelt als: 1.6°
1001.2 hPa 3.6 mm
100%
4.0°
8
Windvlaag: 4.9 m/s
100%1 cm
12:00
Voelt als: 2.9°
1000.2 hPa 3.9 mm
100%
5.1°
7
Windvlaag: 5.9 m/s
100%1 cm
13:00
Voelt als: 4.3°
999.5 hPa 4.0 mm
100%
6.2°
7
Windvlaag: 4.4 m/s
100%1 cm
14:00
Voelt als: 5.3°
998.6 hPa 4.3 mm
99%
7.5°
7
Windvlaag: 3.9 m/s
100%1 cm
15:00
Voelt als: 5.9°
997.7 hPa 4.3 mm
100%
8.6°
8
Windvlaag: 2.6 m/s
100%1 cm
16:00
Voelt als: 6.1°
996.9 hPa 3.6 mm
100%
8.9°
7
Windvlaag: 2.7 m/s
100%1 cm
17:00
10°
Voelt als: 6.1°
995.9 hPa 3.6 mm
100%
9.0°
8
Windvlaag: 2.3 m/s
100%1 cm
18:00
10°
Voelt als: 6.0°
995.3 hPa 3.7 mm
100%
8.7°
8
Windvlaag: 3.3 m/s
100%1 cm
19:00
10°
Voelt als: 6.2°
994.4 hPa 5.8 mm
100%
8.7°
8
Windvlaag: 8 m/s
100%1 cm
20:00
10°
Voelt als: 6.2°
993.4 hPa 6.4 mm
100%
8.7°
8
Windvlaag: 9 m/s
100%1 cm
21:00
10°
Voelt als: 6.1°
992.5 hPa 7.4 mm
100%
8.6°
9
Windvlaag: 9.6 m/s
100%1 cm
22:00
10°
Voelt als: 6.1°
991.5 hPa 7.7 mm
100%
8.6°
9
Windvlaag: 11.1 m/s
100%1 cm
23:00
10°
Voelt als: 6.1°
990.3 hPa 8.5 mm
100%
8.6°
10
Windvlaag: 14.3 m/s
100%1 cm
 07:02     17:55    Daglengte: 10:53 Zaterdag 29 Feb
00:00
10°
Voelt als: 6.2°
989.2 hPa 8.7 mm
100%
8.5°
9
Windvlaag: 7.6 m/s
100%1 cm
01:00
10°
Voelt als: 5.9°
986.5 hPa 13.7 mm
100%
8.3°
9
Windvlaag: 18.2 m/s
100%1 cm warningclass
02:00
Voelt als: 5.6°
984.8 hPa 14.5 mm
100%
8.1°
9
Windvlaag: 18.1 m/s
100%1 cm warningclass
03:00
Voelt als: 5.4°
982.9 hPa 13.5 mm
100%
8.0°
9
Windvlaag: 18.3 m/s
100%1 cm warningclass
04:00
Voelt als: 5.0°
981.8 hPa 14.2 mm
100%
7.8°
9
Windvlaag: 15.4 m/s
94%1 cm
05:00
Voelt als: 3.7°
981.0 hPa 15.1 mm
100%
6.7°
9
Windvlaag: 13.7 m/s
100%1 cm
Temp/Neerslag /Baro Onweer/DauwpuntSneeuw
    Temp Baro Neerslag Dauwpunt Wind BewolkingSneeuw  
 07:08     17:50    Daglengte: 10:42 Vandaag
06:00
Voelt als: -1.2°
1003.6 hPa   -0.4°
8
7%2 cm
09:00
Voelt als: 0.4°
1006.5 hPa   0.5°
8
17%2 cm
12:00
Voelt als: 2.0°
1008.8 hPa   -0.6°
8
30%1 cm
15:00
Voelt als: 2.8°
1008.9 hPa   -1.2°
7
30%1 cm
18:00
Voelt als: 2.1°
1008.5 hPa   0.5°
5
53%1 cm
21:00
Voelt als: 2.5°
1006.4 hPa   1.6°
4
91%1 cm
 07:06     17:51    Daglengte: 10:45 Morgen
00:00
Voelt als: 1.9°
1002.2 hPa 3.3 mm 3.2°
6
91%1 cm
03:00
Voelt als: 0.5°
996.5 hPa 5.3 mm 2.8°
5
91%1 cm
06:00
Voelt als: -0.5°
994.5 hPa 7.3 mm 2.1°
5
90%3 cm
09:00
Voelt als: -0.9°
998.8 hPa 2.1 mm 2.0°
8
15%3 cm
12:00
Voelt als: 1.4°
1003.4 hPa   1.0°
9
9%2 cm
15:00
Voelt als: 2.4°
1007.0 hPa   -0.7°
7
3%2 cm
18:00
Voelt als: 2.1°
1010.1 hPa   0.4°
4
8%2 cm
21:00
Voelt als: 1.4°
1012.1 hPa   0.7°
3
17%2 cm
 07:04     17:53    Daglengte: 10:49 Vrijdag 28 Feb
00:00
Voelt als: 2.5°
1012.4 hPa   0.8°
2
86%2 cm
03:00
Voelt als: 1.2°
1011.0 hPa   2.5°
6
99%2 cm
06:00
Voelt als: 1.1°
1008.1 hPa 3.1 mm 0.6°
6
100%2 cm
09:00
Voelt als: 0.9°
1004.0 hPa 9.5 mm 2.6°
8
100%2 cm
12:00
Voelt als: 2.9°
1000.2 hPa 10.9 mm 5.1°
7
100%1 cm
15:00
Voelt als: 5.9°
997.7 hPa 12.6 mm 8.6°
8
100%1 cm
18:00
10°
Voelt als: 6.0°
995.3 hPa 10.9 mm 8.7°
8
100%1 cm
21:00
10°
Voelt als: 6.1°
992.5 hPa 19.6 mm 8.6°
9
100%1 cm
 07:02     17:55    Daglengte: 10:53 Zaterdag 29 Feb
00:00
10°
Voelt als: 6.2°
989.2 hPa 24.9 mm 8.5°
9
100%1 cm
03:00
Voelt als: 5.4°
982.9 hPa 41.7 mm 8.0°
9
100%1 cm warningclass
06:00
Voelt als: 3.5°
979.8 hPa 45.4 mm 6.6°
8
100%1 cm
09:00
Voelt als: 2.5°
984.4 hPa 39.7 mm 1.9°
10
45%
12:00
Voelt als: 1.4°
986.8 hPa 40.7 mm -1.3°
11
22%
15:00
Voelt als: 0.9°
988.8 hPa 41.4 mm -1.3°
10
19%
18:00
Voelt als: 0.4°
990.9 hPa 41.9 mm -1.1°
9
17%
21:00
Voelt als: -0.5°
992.7 hPa 42.4 mm 1.0°
10
51%
 07:00     17:57    Daglengte: 10:57 Zondag 01 Maa
00:00
Voelt als: -1.4°
994.5 hPa 43.2 mm 2.8°
11
85%
03:00
Voelt als: -0.0°
993.7 hPa 44.2 mm 3.5°
10
82%
06:00
Voelt als: 1.3°
992.8 hPa 44.9 mm 4.0°
10
78%
09:00
Voelt als: 2.4°
990.3 hPa 46.0 mm 4.5°
10
85%
12:00
Voelt als: 3.4°
987.8 hPa 47.2 mm 4.8°
10
92%
15:00
Voelt als: 3.4°
985.8 hPa 48.3 mm 4.8°
9
73%
18:00
Voelt als: 3.2°
983.9 hPa 48.8 mm 4.8°
7
55%
21:00
Voelt als: 1.9°
987.0 hPa 49.1 mm 3.7°
7
40%
 06:57     17:59    Daglengte: 11:02 Maandag 02 Maa
00:00
Voelt als: 0.5°
990.1 hPa 50.8 mm 2.6°
7
25%
03:00
Voelt als: 0.1°
991.2 hPa 52.4 mm 1.8°
6
22%
06:00
Voelt als: 0.1°
992.5 hPa 54.2 mm 0.8°
4
19%
09:00
Voelt als: 1.8°
994.2 hPa 54.7 mm 1.1°
5
24%
12:00
Voelt als: 3.7°
996.0 hPa 54.9 mm 1.3°
6
28%
15:00
Voelt als: 3.0°
998.4 hPa 55.1 mm 0.9°
5
27%
18:00
Voelt als: 2.3°
1000.9 hPa 55.3 mm 0.4°
5
25%
21:00
Voelt als: 1.1°
1004.3 hPa 55.3 mm 0.5°
4
15%
 06:55     18:00    Daglengte: 11:05 Dinsdag 03 Maa
00:00
Voelt als: 0.2°
1007.6 hPa 55.3 mm 0.7°
4
6%
03:00
Voelt als: 1.6°
1009.1 hPa 55.3 mm 0.7°
2
26%
06:00
1010.5 hPa 55.3 mm 0.8°
1
47%
09:00
Voelt als: 2.5°
1009.4 hPa 55.3 mm 1.8°
4
69%
12:00
Voelt als: 2.7°
1008.2 hPa 55.3 mm 2.9°
7
91%
15:00
Voelt als: 3.1°
1002.9 hPa 56.2 mm 4.7°
9
91%
18:00
Voelt als: 3.9°
997.6 hPa 59.7 mm 6.5°
10
92%
21:00
Voelt als: 4.2°
997.4 hPa 61.0 mm 6.8°
10
82%
 06:53     18:02    Daglengte: 11:09 Woensdag 04 Maa
00:00
Voelt als: 4.4°
997.3 hPa 62.5 mm 7.0°
10
72%
03:00
Voelt als: 3.6°
999.2 hPa   5.0°
9
38%
06:00
Voelt als: 3.0°
1001.1 hPa 129.2 mm 2.9°
7
4%
12:00
Voelt als: 3.0°
1000.2 hPa 135.8 mm 4.8°
8
92%
18:00
Voelt als: -0.1°
997.7 hPa 142.4 mm 1.8°
11
60%
 06:51     18:04    Daglengte: 11:13 Donderdag 05 Maa
00:00
Voelt als: 0.2°
1002.6 hPa 149.5 mm 0.2°
10
13%
06:00
Voelt als: 0.9°
1003.5 hPa 152.3 mm 1.6°
10
30%
12:00
Voelt als: 2.3°
1004.6 hPa 153.1 mm 0.6°
10
49%
18:00
Voelt als: 1.5°
1004.9 hPa 153.5 mm 0.9°
9
42%
 06:49     18:06    Daglengte: 11:17 Vrijdag 06 Maa
00:00
Voelt als: 0.7°
1007.6 hPa 155.1 mm 1.8°
9
46%
06:00
Voelt als: -0.0°
1010.1 hPa 160.6 mm 1.8°
8
42%
12:00
Voelt als: 1.2°
1016.6 hPa 161.5 mm 0.8°
10
0%
18:00
Voelt als: 0.7°
1017.1 hPa 161.9 mm -0.7°
6
0%
 06:46     18:07    Daglengte: 11:21 Zaterdag 07 Maa
00:00
Voelt als: 1.1°
1010.4 hPa 0.8 mm 0.5°
2
43%
06:00
Voelt als: 0.7°
1010.1 hPa 0.9 mm 0.7°
3
49%
12:00
Voelt als: 4.2°
1011.6 hPa 1.1 mm 2.4°
4
57%
18:00
Voelt als: 3.9°
1011.1 hPa 1.5 mm 2.6°
2
66%
 06:44     18:09    Daglengte: 11:25 Zondag 08 Maa
00:00
Voelt als: 3.4°
1011.8 hPa 1.2 mm 2.2°
1
63%
06:00
Voelt als: 3.1°
1011.6 hPa 0.7 mm 1.7°
1
53%
12:00
Voelt als: 6.7°
1013.3 hPa 0.8 mm 3.0°
1
65%
18:00
Voelt als: 5.3°
1014.3 hPa 0.6 mm 2.9°
1
60%
 06:42     18:11    Daglengte: 11:29 Maandag 09 Maa
00:00
Voelt als: 4.2°
1016.6 hPa 0.6 mm 2.0°
1
50%
06:00
Voelt als: 2.7°
1017.7 hPa 0.5 mm 1.3°
1
39%
12:00
1019.1 hPa 0.4 mm 2.7°
1
54%
18:00
Voelt als: 5.8°
1018.7 hPa 0.8 mm 2.5°
1
68%
 06:40     18:13    Daglengte: 11:33 Dinsdag 10 Maa
00:00
Voelt als: 4.4°
1019.3 hPa 0.8 mm 2.4°
1
54%
06:00
Voelt als: 2.7°
1019.4 hPa 0.9 mm 1.7°
1
51%
12:00
Voelt als: 6.2°
1021.0 hPa 0.5 mm 2.0°
2
47%
18:00
Voelt als: 4.5°
1020.5 hPa 0.4 mm 1.8°
2
46%
 06:37     18:14    Daglengte: 11:37 Woensdag 11 Maa
00:00
1021.2 hPa 0.5 mm 1.0°
0
44%
06:00
1020.0 hPa 0.7 mm 0.9°
1
47%
12:00
Voelt als: 7.5°
1019.8 hPa 0.8 mm 3.0°
1
46%
18:00
Voelt als: 6.0°
1019.2 hPa 0.6 mm 2.8°
1
44%
 06:35     18:16    Daglengte: 11:41 Donderdag 12 Maa
00:00
Voelt als: 4.1°
1019.3 hPa 0.7 mm 2.8°
1
37%
  CAPE Lifted Index Hail Supercell Tornado SRH 3km CL BTM PRES CL TOP PRES Swiss DWD icon SMHI TS
 07:08     17:50    Daglengte: 10:42 Vandaag
06:00 11 J/kg 2.6 K 0 % 0 % 0 % 0 m²/s² 0 0 6.8 1
07:00 0 J/kg 3.6 K 0 % 0 % 0 % 0 m²/s² 0 0 6.96 1
08:00 10 J/kg 4.2 K 0 % 0 % 0 % 0 m²/s² 0 0 5.07 2
09:00 64 J/kg 5.1 K 0 % 0 % 0 % 0 m²/s² 0 0 8.28 2
10:00 92 J/kg 6.2 K 0 % 0 % 0 % 0 m²/s² 0 0 10.79 2
11:00 68 J/kg 7.8 K 0 % 0 % 0 % 0 m²/s² 0 0 13.38 1
12:00 33 J/kg 8.3 K 0 % 0 % 0 % 0 m²/s² 0 0 12.26 1
13:00 28 J/kg 8.8 K 0 % 0 % 0 % 0 m²/s² 0 0 11.71 1
14:00 24 J/kg 9.5 K 0 % 0 % 0 % 0 m²/s² 0 0 12.14 1
15:00 37 J/kg 9.4 K 0 % 0 % 0 % 0 m²/s² 0 0 11.77 2
16:00 35 J/kg 9.4 K 0 % 0 % 0 % 0 m²/s² 0 0 11.98 1
17:00 60 J/kg 9.3 K 0 % 0 % 0 % 0 m²/s² 0 0 11.82 1
18:00 18 J/kg 10.0 K 0 % 0 % 0 % 0 m²/s² 0 0 11.71 2
19:00 18 J/kg 9.9 K 0 % 0 % 0 % 0 m²/s² 0 0 12.03 3
20:00 5 J/kg 10.3 K 0 % 0 % 0 % 0 m²/s² 0 0 12.25 3
21:00 9 J/kg 10.1 K 0 % 0 % 0 % 0 m²/s² 0 0 10.91 3
22:00 27 J/kg 10.0 K 0 % 0 % 0 % 0 m²/s² 0 0 10.54 61
23:00 83 J/kg 9.8 K 0 % 0 % 0 % 0 m²/s² 0 0 10.31 61
 07:06     17:51    Daglengte: 10:45 Morgen
00:00 60 J/kg 10.5 K 0 % 0 % 0 % 0 m²/s² 0 0 10.98 61
01:00 18 J/kg 11.0 K 0 % 0 % 0 % 0 m²/s² 0 0 11.45 61
02:00 12 J/kg 10.0 K 0 % 0 % 0 % 0 m²/s² 0 0 10.36 61
03:00 7 J/kg 8.4 K 0 % 0 % 0 % 0 m²/s² 0 0 8.73 61
04:00 2 J/kg 6.7 K 0 % 0 % 0 % 0 m²/s² 0 0 7.06 61
05:00 0 J/kg 3.9 K 0 % 0 % 0 % 0 m²/s² 0 0 4.47 61
06:00 0 J/kg 4.9 K 0 % 0 % 0 % 0 m²/s² 0 0 6.37 61
07:00 0 J/kg 7.4 K 0 % 0 % 0 % 0 m²/s² 0 0 9.65 61
08:00 0 J/kg 10.6 K 0 % 0 % 0 % 0 m²/s² 0 0 13.24 61
09:00 1 J/kg 10.7 K 0 % 0 % 0 % 0 m²/s² 0 0 13.34 2
10:00 12 J/kg 10.8 K 0 % 0 % 0 % 0 m²/s² 0 0 15.87 3
11:00 80 J/kg 9.4 K 0 % 0 % 0 % 0 m²/s² 0 0 15.16 1
12:00 71 J/kg 9.8 K 0 % 0 % 0 % 0 m²/s² 0 0 15.53 2
13:00 23 J/kg 10.8 K 0 % 0 % 0 % 0 m²/s² 0 0 17.1 2
14:00 32 J/kg 10.6 K 0 % 0 % 0 % 0 m²/s² 0 0 17.35 1
15:00 32 J/kg 10.3 K 0 % 0 % 0 % 0 m²/s² 0 0 17.05 1
16:00 50 J/kg 9.3 K 0 % 0 % 0 % 0 m²/s² 0 0 17.22 1
17:00 23 J/kg 9.4 K 0 % 0 % 0 % 0 m²/s² 0 0 15.97 1
18:00 2 J/kg 10.3 K 0 % 0 % 0 % 0 m²/s² 0 0 15.46 0
19:00 0 J/kg 10.4 K 0 % 0 % 0 % 0 m²/s² 0 0 15.86 0
20:00 10 J/kg 10.8 K 0 % 0 % 0 % 0 m²/s² 0 0 15.33 3
21:00 18 J/kg 11.3 K 0 % 0 % 0 % 0 m²/s² 0 0 15.98 3
22:00 0 J/kg 12.8 K 0 % 0 % 0 % 0 m²/s² 0 0 17.75 1
23:00 0 J/kg 12.6 K 0 % 0 % 0 % 0 m²/s² 0 0 18.45 3
 07:04     17:53    Daglengte: 10:49 Vrijdag 28 Feb
00:00 0 J/kg 12.6 K 0 % 0 % 0 % 0 m²/s² 0 0 17.07 3
01:00 0 J/kg 12.2 K 0 % 0 % 0 % 0 m²/s² 0 0 14.78 3
02:00 0 J/kg 12.7 K 0 % 0 % 0 % 0 m²/s² 0 0 14.5 3
03:00 20 J/kg 12.3 K 0 % 0 % 0 % 0 m²/s² 0 0 12.81 3
04:00 89 J/kg 11.2 K 0 % 0 % 0 % 0 m²/s² 0 0 11.68 3
05:00 47 J/kg 11.6 K 0 % 0 % 0 % 0 m²/s² 0 0 12.05 3
06:00 20 J/kg 11.5 K 0 % 0 % 0 % 0 m²/s² 0 0 11.86 61
07:00 9 J/kg 11.4 K 0 % 0 % 0 % 0 m²/s² 0 0 11.76 61
08:00 5 J/kg 10.5 K 0 % 0 % 0 % 0 m²/s² 0 0 10.77 61
09:00 0 J/kg 9.7 K 0 % 0 % 0 % 0 m²/s² 0 0 10.06 61
10:00 11 J/kg 8.4 K 0 % 0 % 0 % 0 m²/s² 0 0 8.85 61
11:00 4 J/kg 6.1 K 0 % 0 % 0 % 0 m²/s² 0 0 6.73 61
12:00 0 J/kg 3.6 K 0 % 0 % 0 % 0 m²/s² 0 0 4.23 61
13:00 0 J/kg 2.3 K 0 % 0 % 0 % 0 m²/s² 0 0 2.75 61
14:00 0 J/kg 1.6 K 0 % 0 % 0 % 0 m²/s² 0 0 2.32 61
15:00 2 J/kg 2.0 K 0 % 0 % 0 % 0 m²/s² 0 0 2.84 80
16:00 1 J/kg 2.8 K 0 % 0 % 0 % 0 m²/s² 0 0 3.1 61
17:00 0 J/kg 2.5 K 0 % 0 % 0 % 0 m²/s² 0 0 2.74 61
18:00 0 J/kg 2.7 K 0 % 0 % 0 % 0 m²/s² 0 0 2.94 61
19:00 1 J/kg 2.8 K 0 % 0 % 0 % 0 m²/s² 0 0 3.01 61
20:00 1 J/kg 3.5 K 0 % 0 % 0 % 0 m²/s² 0 0 3.71 63
21:00 1 J/kg 3.6 K 0 % 0 % 0 % 0 m²/s² 0 0 3.81 61
22:00 0 J/kg 3.1 K 0 % 0 % 0 % 0 m²/s² 0 0 3.28 80
23:00 0 J/kg 2.0 K 0 % 0 % 0 % 0 m²/s² 0 0 2.12 3
 07:02     17:55    Daglengte: 10:53 Zaterdag 29 Feb
00:00 0 J/kg 1.7 K 0 % 0 % 0 % 0 m²/s² 0 0 1.88 61
01:00 0 J/kg 2.3 K 0 % 0 % 0 % 0 m²/s² 0 0 2.33 61
02:00 0 J/kg 2.8 K 0 % 0 % 0 % 0 m²/s² 0 0 2.8 63
03:00 0 J/kg 2.8 K 0 % 0 % 0 % 0 m²/s² 0 0 3.01 3
04:00 47 J/kg 3.2 K 0 % 0 % 0 % 0 m²/s² 0 0 3.44 80
05:00 32 J/kg 6.7 K 0 % 0 % 0 % 0 m²/s² 0 0 6.94 80
Temp Baro Wind Neerslag
  EWN Forecast EWN WRFDA DWD ICON FMI HIRLAM MET Norway GFS
 07:08     17:50    Daglengte: 10:42 Vandaag
06:00 3.9° 1003.6 hPa 7.8 m/s 0.0 mm 2.9° 1001.5 hPa 9.6 m/s 2.8 mm 3.8° 1004.1 hPa 5.6 m/s -2.0 mm 4.8° 1003.7 hPa 9.8 m/s 0.0 mm 3.7° 1003.6 hPa 7.0 m/s 3.9° 1004.3 hPa 10.3 m/s
09:00 5.1° 1006.5 hPa 7.6 m/s 0.0 mm 4.5° 1005.1 hPa 10.0 m/s 8.8 mm 5.0° 1007.5 hPa 7.0 m/s 0.0 mm 5.5° 1006.2 hPa 9.0 m/s 0.0 mm 5.0° 1006.5 hPa 6.9 m/s 5.0° 1007.4 hPa 10.8 m/s
12:00 6.5° 1008.8 hPa 8.5 m/s 0.0 mm 6.4° 1007.3 hPa 10.0 m/s 9.2 mm 7.1° 1009.3 hPa 6.7 m/s 0.0 mm 6.3° 1008.4 hPa 9.0 m/s 0.0 mm 6.4° 1008.9 hPa 8.3 m/s 6.2° 1009.7 hPa 9.6 m/s
15:00 6.8° 1008.9 hPa 6.9 m/s 0.0 mm 6.7° 1007.6 hPa 8.1 m/s 9.2 mm 7.0° 1009.6 hPa 5.9 m/s 0.0 mm 6.7° 1008.2 hPa 7.2 m/s 0.0 mm 6.6° 1009.0 hPa 6.6 m/s 6.2° 1010.1 hPa 8.0 m/s
18:00 5.5° 1008.5 hPa 4.7 m/s 0.0 mm 4.4° 1007.0 hPa 4.2 m/s 9.2 mm 5.5° 1008.9 hPa 4.1 m/s 0.0 mm 6.0° 1007.8 hPa 6.0 m/s 0.0 mm 5.0° 1008.7 hPa 4.5 m/s 4.8° 1009.0 hPa 5.8 m/s
21:00 5.6° 1006.4 hPa 4.1 m/s 0.0 mm 5.0° 1004.6 hPa 4.2 m/s 9.2 mm 5.8° 1006.8 hPa 3.7 m/s 0.0 mm 6.3° 1005.4 hPa 5.6 m/s 0.0 mm 4.4° 1006.6 hPa 1.8 m/s 4.9° 1007.2 hPa 4.5 m/s
 07:06     17:51    Daglengte: 10:45 Morgen
00:00 5.7° 1002.2 hPa 5.6 m/s 3.3 mm 5.3° 1000.4 hPa 4.3 m/s 9.5 mm 5.8° 1002.4 hPa 4.5 m/s 1.0 mm 5.9° 1000.9 hPa 6.6 m/s 0.0 mm 4.9° 1003.1 hPa 5.2 m/s 4.6° 1002.6 hPa 6.8 m/s
03:00 4.3° 996.5 hPa 4.9 m/s 5.3 mm 3.8° 992.4 hPa 6.4 m/s 17.4 mm 5.2° 997.7 hPa 4.1 m/s 3.7 mm 4.2° 995.3 hPa 5.5 m/s 0.0 mm 4.2° 998.1 hPa 3.7 m/s 4.4° 993.1 hPa 8.4 m/s
06:00 3.5° 994.5 hPa 4.8 m/s 7.3 mm 2.9° 986.8 hPa 7.1 m/s 33.2 mm 3.4° 994.9 hPa 3.5 m/s 2.8 mm 4.2° 995.0 hPa 6.1 m/s 0.0 mm 3.3° 996.5 hPa 3.0 m/s 6.6° 988.5 hPa 1.7 m/s
09:00 4.0° 998.8 hPa 7.5 m/s 2.1 mm 3.4° 993.5 hPa 9.5 m/s 39.1 mm 4.4° 997.9 hPa 5.4 m/s 0.5 mm 5.3° 999.7 hPa 8.7 m/s 0.0 mm 3.9° 999.7 hPa 6.2 m/s 4.1° 993.4 hPa 12.5 m/s
12:00 6.1° 1003.4 hPa 8.8 m/s 0.0 mm 6.1° 999.5 hPa 10.7 m/s 39.4 mm 6.6° 1002.7 hPa 6.5 m/s 0.0 mm 6.0° 1004.2 hPa 10.1 m/s 0.0 mm 5.5° 1003.8 hPa 7.6 m/s 5.5° 1002.0 hPa 11.2 m/s
15:00 6.6° 1007.0 hPa 7.5 m/s 0.0 mm 6.1° 1003.6 hPa 9.3 m/s 39.5 mm 6.7° 1006.3 hPa 5.8 m/s 0.0 mm 6.5° 1007.4 hPa 8.9 m/s 0.0 mm 6.3° 1007.2 hPa 6.6 m/s 5.9° 1005.3 hPa 9.4 m/s
18:00 5.2° 1010.1 hPa 4.0 m/s 0.0 mm 3.0° 1006.7 hPa 4.6 m/s 39.5 mm 5.3° 1009.8 hPa 2.0 m/s 0.0 mm 6.2° 1010.0 hPa 6.4 m/s 0.0 mm 4.8° 1010.5 hPa 3.3 m/s 4.8° 1009.2 hPa 7.0 m/s
21:00 4.3° 1012.1 hPa 3.4 m/s 0.0 mm 3.9° 1009.0 hPa 3.8 m/s 39.5 mm 4.3° 1011.1 hPa 1.7 m/s 0.0 mm 6.4° 1011.7 hPa 6.5 m/s 0.0 mm 2.8° 1012.8 hPa 2.8 m/s 4.3° 1011.6 hPa 5.4 m/s
 07:04     17:53    Daglengte: 10:49 Vrijdag 28 Feb
00:00 4.6° 1012.4 hPa 2.4 m/s 0.0 mm 3.3° 1009.4 hPa 2.9 m/s 39.5 mm 4.9° 1011.1 hPa 3.0 m/s 0.0 mm 6.5° 1011.9 hPa 5.4 m/s 0.0 mm 2.1° 1014.2 hPa 1.5 m/s 4.5° 1011.8 hPa 1.9 m/s
03:00 5.1° 1011.0 hPa 5.5 m/s 0.0 mm 4.1° 1007.8 hPa 2.5 m/s 39.5 mm 5.1° 1009.8 hPa 5.0 m/s 0.0 mm 4.9° 1012.8 hPa 5.5 m/s 4.8° 1010.7 hPa 4.5 m/s
06:00 5.3° 1008.1 hPa 6.3 m/s 3.1 mm 5.3° 1005.8 hPa 7.6 m/s 40.0 mm 5.2° 1006.6 hPa 5.7 m/s 0.3 mm 5.0° 1010.6 hPa 5.1 m/s 4.9° 1007.9 hPa 6.4 m/s
09:00 5.6° 1004.0 hPa 8.3 m/s 9.5 mm 4.4° 1003.4 hPa 6.2 m/s 43.8 mm 5.7° 1002.9 hPa 7.4 m/s 4.0 mm 6.0° 1006.9 hPa 8.1 m/s 5.0° 1004.4 hPa 8.6 m/s
12:00 6.9° 1000.2 hPa 7.0 m/s 10.9 mm 5.1° 1000.1 hPa 8.9 m/s 48.8 mm 6.6° 997.6 hPa 5.3 m/s 3.9 mm 6.7° 1002.5 hPa 6.7 m/s 5.7° 1001.4 hPa 9.8 m/s
15:00 9.3° 997.7 hPa 7.5 m/s 12.6 mm 6.6° 997.0 hPa 5.7 m/s 52.2 mm 10.0° 993.9 hPa 6.6 m/s 1.5 mm 9.5° 998.1 hPa 8.9 m/s 6.9° 998.1 hPa 2.7 m/s
18:00 9.6° 995.3 hPa 8.3 m/s 10.9 mm 9.7° 994.4 hPa 6.9 m/s 59.7 mm 10.3° 990.1 hPa 8.5 m/s 4.5 mm 9.6° 995.8 hPa 10.0 m/s 9.2° 995.6 hPa 5.7 m/s
21:00 9.7° 992.5 hPa 9.0 m/s 19.6 mm 9.5° 991.1 hPa 8.5 m/s 77.9 mm 10.6° 984.6 hPa 9.2 m/s 6.1 mm 9.7° 993.6 hPa 9.4 m/s 9.3° 992.4 hPa 7.6 m/s
 07:02     17:55    Daglengte: 10:53 Zaterdag 29 Feb
00:00 9.8° 989.2 hPa 9.2 m/s 24.9 mm 9.7° 986.6 hPa 10.6 m/s 101.5 mm 10.1° 980.4 hPa 8.9 m/s 1.6 mm 9.8° 991.5 hPa 8.9 m/s 9.7° 987.7 hPa 8.7 m/s
03:00 9.2° 982.9 hPa 8.9 m/s 41.7 mm 9.8° 980.0 hPa 11.3 m/s 116.4 mm 8.0° 980.4 hPa 7.6 m/s 4.3 mm 9.4° 985.5 hPa 8.9 m/s 9.9° 981.2 hPa 10.8 m/s
06:00 7.6° 979.8 hPa 8.3 m/s 45.4 mm 6.8° 979.0 hPa 7.7 m/s 133.0 mm 4.9° 981.1 hPa 7.7 m/s 1.5 mm 9.0° 979.6 hPa 8.9 m/s 6.9° 980.0 hPa 10.0 m/s
09:00 7.2° 984.4 hPa 10.0 m/s 39.7 mm 7.3° 984.6 hPa 9.9 m/s 5.6° 982.4 hPa 10.6 m/s 39.7 mm
12:00 6.5° 986.8 hPa 10.7 m/s 40.7 mm 6.5° 987.1 hPa 10.4 m/s 6.0° 983.2 hPa 13.9 m/s 40.7 mm
15:00 5.9° 988.8 hPa 9.9 m/s 41.4 mm 6.0° 989.5 hPa 9.4 m/s 5.9° 981.2 hPa 15.8 m/s 41.4 mm
18:00 5.4° 990.9 hPa 9.0 m/s 41.9 mm 5.4° 991.8 hPa 8.4 m/s 5.2° 981.3 hPa 15.9 m/s 41.9 mm
21:00 4.9° 992.7 hPa 10.1 m/s 42.4 mm 4.9° 993.6 hPa 9.6 m/s 5.3° 982.8 hPa 15.4 m/s 42.4 mm
 07:00     17:57    Daglengte: 10:57 Zondag 01 Maa
00:00 4.5° 994.5 hPa 11.2 m/s 43.2 mm 4.4° 995.5 hPa 10.8 m/s 5.3° 983.2 hPa 15.6 m/s 43.2 mm
03:00 5.3° 993.7 hPa 10.3 m/s 44.2 mm 5.3° 994.6 hPa 9.9 m/s 5.1° 983.0 hPa 14.6 m/s 44.2 mm
06:00 6.2° 992.8 hPa 9.5 m/s 44.9 mm 6.3° 993.8 hPa 9.0 m/s 5.1° 981.9 hPa 15.4 m/s 44.9 mm
09:00 7.0° 990.3 hPa 9.6 m/s 46.0 mm 7.2° 991.0 hPa 9.2 m/s 5.7° 982.0 hPa 14.3 m/s 46.0 mm
12:00 7.9° 987.8 hPa 9.8 m/s 47.2 mm 8.0° 988.3 hPa 9.4 m/s 6.5° 981.7 hPa 14.5 m/s 47.2 mm
15:00 7.6° 985.8 hPa 8.6 m/s 48.3 mm 7.7° 986.3 hPa 8.0 m/s 6.8° 980.5 hPa 15.2 m/s 48.3 mm
18:00 7.2° 983.9 hPa 7.3 m/s 48.8 mm 7.3° 984.3 hPa 6.6 m/s 6.0° 979.7 hPa 15.0 m/s 48.8 mm
21:00 6.2° 987.0 hPa 7.3 m/s 49.1 mm 6.2° 987.7 hPa 6.7 m/s 6.2° 979.2 hPa 14.9 m/s 49.1 mm
 06:57     17:59    Daglengte: 11:02 Maandag 02 Maa
00:00 5.1° 990.1 hPa 7.3 m/s 50.8 mm 5.0° 991.1 hPa 6.7 m/s 5.8° 978.8 hPa 14.3 m/s 50.8 mm
03:00 4.2° 991.2 hPa 5.6 m/s 52.4 mm 4.0° 992.4 hPa 4.8 m/s 5.8° 979.0 hPa 14.3 m/s 52.4 mm
06:00 3.4° 992.5 hPa 3.6 m/s 54.2 mm 3.1° 993.6 hPa 2.9 m/s 6.2° 980.5 hPa 11.6 m/s 54.2 mm
09:00 5.2° 994.2 hPa 4.6 m/s 54.7 mm 5.0° 995.2 hPa 4.0 m/s 6.5° 982.8 hPa 10.2 m/s 54.7 mm
12:00 7.0° 996.0 hPa 5.5 m/s 54.9 mm 7.0° 996.9 hPa 5.2 m/s 7.2° 985.5 hPa 8.9 m/s 54.9 mm
15:00 6.4° 998.4 hPa 5.2 m/s 55.1 mm 6.3° 999.3 hPa 4.8 m/s 6.9° 987.6 hPa 8.6 m/s 55.1 mm
18:00 5.7° 1000.9 hPa 4.9 m/s 55.3 mm 5.7° 1001.8 hPa 4.5 m/s 5.8° 990.7 hPa 8.8 m/s 55.3 mm
21:00 4.6° 1004.3 hPa 4.4 m/s 55.3 mm 4.7° 1005.1 hPa 4.0 m/s 4.2° 994.6 hPa 8.8 m/s 55.3 mm
 06:55     18:00    Daglengte: 11:05 Dinsdag 03 Maa
00:00 3.6° 1007.6 hPa 4.0 m/s 55.3 mm 3.6° 1008.5 hPa 3.6 m/s 3.6° 997.4 hPa 7.9 m/s 55.3 mm
03:00 3.8° 1009.1 hPa 2.4 m/s 55.3 mm 3.8° 1009.9 hPa 2.0 m/s 3.2° 999.7 hPa 6.8 m/s 55.3 mm
06:00 4.0° 1010.5 hPa 0.7 m/s 55.3 mm 4.1° 1011.3 hPa 0.4 m/s 2.7° 1001.2 hPa 4.2 m/s 55.3 mm
09:00 5.4° 1009.4 hPa 3.8 m/s 55.3 mm 5.4° 1010.1 hPa 3.9 m/s 4.8° 1001.0 hPa 2.2 m/s 55.3 mm
12:00 6.8° 1008.2 hPa 7.2 m/s 55.3 mm 6.8° 1009.0 hPa 7.4 m/s 6.4° 999.5 hPa 5.0 m/s 55.3 mm
15:00 7.4° 1002.9 hPa 8.5 m/s 56.2 mm 7.6° 1003.7 hPa 8.7 m/s 5.3° 994.1 hPa 7.2 m/s 56.2 mm
18:00 8.2° 997.6 hPa 9.7 m/s 59.7 mm 8.3° 998.4 hPa 9.9 m/s 6.8° 988.9 hPa 7.9 m/s 59.7 mm
21:00 8.5° 997.4 hPa 9.9 m/s 61.0 mm 8.5° 998.4 hPa 10.1 m/s 8.2° 986.5 hPa 8.1 m/s 61.0 mm
 06:53     18:02    Daglengte: 11:09 Woensdag 04 Maa
00:00 8.6° 997.3 hPa 10.0 m/s 62.5 mm 8.7° 998.4 hPa 10.2 m/s 7.6° 985.3 hPa 8.4 m/s 62.5 mm
03:00 7.8° 999.2 hPa 8.7 m/s 63.9 mm 7.8° 1000.6 hPa 8.8 m/s 7.3° 984.2 hPa 8.1 m/s 63.9 mm
06:00 7.0° 1001.1 hPa 7.4 m/s 65.3 mm 7.0° 1002.8 hPa 7.3 m/s 7.4° 982.6 hPa 8.3 m/s 65.3 mm
12:00 7.2° 1000.2 hPa 8.3 m/s 68.8 mm 7.2° 1001.7 hPa 7.9 m/s 7.3° 983.4 hPa 12.9 m/s 68.8 mm
18:00 5.5° 997.7 hPa 11.5 m/s 71.8 mm 5.4° 999.3 hPa 11.2 m/s 7.1° 980.2 hPa 14.6 m/s 71.8 mm
 06:51     18:04    Daglengte: 11:13 Donderdag 05 Maa
00:00 5.5° 1002.6 hPa 9.8 m/s 75.5 mm 5.4° 1004.0 hPa 9.9 m/s 6.0° 987.8 hPa 8.9 m/s 75.5 mm
06:00 5.9° 1003.5 hPa 9.9 m/s 76.4 mm 6.0° 1004.2 hPa 9.9 m/s 5.4° 995.9 hPa 10.1 m/s 76.4 mm
12:00 7.1° 1004.6 hPa 10.3 m/s 76.6 mm 7.1° 1004.7 hPa 10.2 m/s 7.0° 1003.1 hPa 11.1 m/s 76.6 mm
18:00 6.3° 1004.9 hPa 9.0 m/s 76.8 mm 6.3° 1004.6 hPa 9.1 m/s 5.8° 1008.0 hPa 7.4 m/s 76.8 mm
 06:49     18:06    Daglengte: 11:17 Vrijdag 06 Maa
00:00 5.7° 1007.6 hPa 9.1 m/s 78.0 mm 5.8° 1007.3 hPa 9.0 m/s 4.1° 1011.5 hPa 10.7 m/s 78.0 mm
06:00 4.8° 1010.1 hPa 7.9 m/s 80.7 mm 4.9° 1009.7 hPa 7.7 m/s 4.1° 1014.1 hPa 10.1 m/s 80.7 mm
12:00 6.2° 1016.6 hPa 9.9 m/s 80.8 mm 6.2° 1016.6 hPa 9.9 m/s 80.8 mm
18:00 4.9° 1017.1 hPa 6.1 m/s 81.0 mm 4.9° 1017.1 hPa 6.1 m/s 81.0 mm
 06:46     18:07    Daglengte: 11:21 Zaterdag 07 Maa
00:00 3.3° 1010.4 hPa 2.3 m/s 0.8 mm
06:00 3.4° 1010.1 hPa 2.8 m/s 0.9 mm
12:00 6.7° 1011.6 hPa 3.5 m/s 1.1 mm
18:00 5.6° 1011.1 hPa 2.1 m/s 1.5 mm
 06:44     18:09    Daglengte: 11:25 Zondag 08 Maa
00:00 4.3° 1011.8 hPa 1.3 m/s 1.2 mm
06:00 3.8° 1011.6 hPa 1.2 m/s 0.7 mm
12:00 7.1° 1013.3 hPa 1.3 m/s 0.8 mm
18:00 6.0° 1014.3 hPa 1.4 m/s 0.6 mm
 06:42     18:11    Daglengte: 11:29 Maandag 09 Maa
00:00 4.3° 1016.6 hPa 0.9 m/s 0.6 mm
06:00 3.4° 1017.7 hPa 1.2 m/s 0.5 mm
12:00 7.2° 1019.1 hPa 0.9 m/s 0.4 mm
18:00 5.9° 1018.7 hPa 1.0 m/s 0.8 mm
 06:40     18:13    Daglengte: 11:33 Dinsdag 10 Maa
00:00 4.4° 1019.3 hPa 0.8 m/s 0.8 mm
06:00 3.7° 1019.4 hPa 1.3 m/s 0.9 mm
12:00 7.3° 1021.0 hPa 1.8 m/s 0.5 mm
18:00 5.7° 1020.5 hPa 1.7 m/s 0.4 mm
 06:37     18:14    Daglengte: 11:37 Woensdag 11 Maa
00:00 3.5° 1021.2 hPa 0.3 m/s 0.5 mm
06:00 3.2° 1020.0 hPa 0.8 m/s 0.7 mm
12:00 7.9° 1019.8 hPa 1.3 m/s 0.8 mm
18:00 6.5° 1019.2 hPa 1.2 m/s 0.6 mm
 06:35     18:16    Daglengte: 11:41 Donderdag 12 Maa
00:00 4.9° 1019.3 hPa 1.3 m/s 0.7 mm
FMI Hirlam - 7.5 km EWN WRFDA - 12 km DWD ICON - 7 km GFS - 25 km Basiskaart






























































Updatetijd (Europe/Amsterdam) Resolutie Lengte Stap
FMI Hirlam 06:15, 12:15, 18:15, 00:15 7.5 km 49h 1h
EWN WRFDA 02:15, 08:15, 14:15, 20:15 12 km 73h 1h
DWD ICON 05:00, 11:00, 17:00, 23:00 7 km 75h 1h
GFS 01:00, 07:00, 13:00, 19:00 25 km 237h 3h
30+ mm
25-30 mm
20-25 mm
15-20 mm
10-15 mm
6-10 mm
4-6 mm
2-4 mm
1-2 mm
0.5-1 mm
0.2-0.5 mm
0.1-0.2 mm
30+ mm
25-30 mm
20-25 mm
15-20 mm
10-15 mm
6-10 mm
4-6 mm
2-4 mm
1-2 mm
0.5-1 mm
0.2-0.5 mm
0.1-0.2 mm
Sneeuwval
Natte sneeuw
Hagel
Vorst
30+ mm
25-30 mm
20-25 mm
15-20 mm
10-15 mm
6-10 mm
4-6 mm
2-4 mm
1-2 mm
0.5-1 mm
0.2-0.5 mm
0.1-0.2 mm
Sneeuwval
Natte sneeuw
Hagel
Vorst
Onweer
50 mm
40 mm
30 mm
26 mm
22 mm
18 mm
14 mm
10 mm
9 mm
8 mm
7 mm
6 mm
5 mm
4.5 mm
4 mm
3.5 mm
3 mm
2.5 mm
2 mm
1.5 mm
1 mm
0.8 mm
0.6 mm
0.4 mm
0.2 mm
0.05 mm
35°
30°
25°
20°
15°
10°
-5°
-10°
-15°
-20°
-25°
-30°
-35°
33> m/s
29 m/s
25 m/s
21 m/s
17 m/s
14 m/s
11 m/s
8 m/s
5 m/s
3 m/s
0 m/s
2600 J/kg
2400 J/kg
2200 J/kg
2000 J/kg
1800 J/kg
1600 J/kg
1400 J/kg
1200 J/kg
1000 J/kg
800 J/kg
600 J/kg
400 J/kg
200 J/kg
70 dBZ
65 dBZ
60 dBZ
55 dBZ
50 dBZ
45 dBZ
40 dBZ
35 dBZ
30 dBZ
25 dBZ
20 dBZ
15 dBZ
10 dBZ
5 dBZ
-1 K
-2 K
-3 K
-4 K
-5 K
-6 K
-7 K
-8 K
-9 K
950 m²/s²
900 m²/s²
850 m²/s²
800 m²/s²
750 m²/s²
700 m²/s²
650 m²/s²
600 m²/s²
550 m²/s²
500 m²/s²
450 m²/s²
400 m²/s²
350 m²/s²
300 m²/s²
250 m²/s²
200 m²/s²
150 m²/s²
100 m²/s²
46 m/s
44 m/s
42 m/s
40 m/s
38 m/s
36 m/s
34 m/s
32 m/s
30 m/s
28 m/s
26 m/s
24 m/s
22 m/s
20 m/s
16 m/s
12 m/s
8 m/s
4 m/s
30 m/s
28 m/s
26 m/s
24 m/s
22 m/s
20 m/s
18 m/s
16 m/s
14 m/s
12 m/s
10 m/s
8 m/s
6 m/s
4 m/s
2 m/s
3.0
2.8
2.6
2.4
2.2
2.0
1.8
1.6
1.4
1.2
1.0
0.8
0.6
0.4
0.2
15
14
13
12
11
10
9
8
7
6
5
4
3
2
1
90%
80%
70%
60%
50%
40%
30%
20%
10%
42
40
38
36
34
32
30
28
26
24
22
20
18
16
14
12
90+ cm
80-90 cm
70-80 cm
60-70 cm
50-60 cm
40-50 cm
30-40 cm
20-30 cm
10-20 cm
1-10 cm
Sneeuwval
Natte sneeuw
Regen
>120 mm
115 mm
110 mm
105 mm
100 mm
95 mm
90 mm
85 mm
80 mm
75 mm
70 mm
65 mm
60 mm
55 mm
50 mm
45 mm
45 mm
40 mm
35 mm
30 mm
25 mm
20 mm
15 mm
10 mm
5 mm
0.1 mm
960 hPa
880 hPa
800 hPa
720 hPa
640 hPa
560 hPa
584 gpdm
568 gpdm
552 gpdm
536 gpdm
520 gpdm
504 gpdm
488 gpdm
Extreem zwaar Noodweer Kans op onweer
15% 15% 5% 50% 15%

Dag




Kaart






35°
30°
25°
20°
15°
10°
-5°
-10°
-15°
-20°
-25°
-30°
-35°
33> m/s
29 m/s
25 m/s
21 m/s
17 m/s
14 m/s
11 m/s
8 m/s
5 m/s
3 m/s
0 m/s
Extreem zwaar Noodweer Kans op onweer
15% 15% 5% 50% 15%
>120 mm
115 mm
110 mm
105 mm
100 mm
95 mm
90 mm
85 mm
80 mm
75 mm
70 mm
65 mm
60 mm
55 mm
50 mm
45 mm
45 mm
40 mm
35 mm
30 mm
25 mm
20 mm
15 mm
10 mm
5 mm
0.1 mm
Onweer risico kaarten - De groene en gele kleur geeft de kans op onweer aan binnen 40 km van een punt. Oranje, rood en violet hebben hetzelfde niveau zoals je het ziet op estofex.org waaronder ook de kans op hagel en supercells.

dBZ - dBZ staat voor decibel ten opzichte van Z.

Cape - Convective available potential energy (CAPE), is de totale hoeveelheid energie die een luchtpakketje nodig heeft om zover mogelijk te stijgen in de atmosfeer.

K Index - K-Index wordt berekend door de Vertical Totals (VT) en het verschil tussen de 850 hPa temperatuur en de 700 hPa dauwpuntsdepressie (Tdd 700) bij elkaar op te tellen.

TT Index - Convectie index wordt gebruikt voor het voorspellen van zware buien of onweer.

WRF - The Weather Research and Forecasting (WRF) is een volgende generatie mesoscale numeriek weersvoorspelling systeem ontworpen om zowel de operationele planning als het atmosferisch onderzoek te dienen. WRF is a cooperatie tussen het National Center for Atmospheric Research (NCAR), National Centers for Environmental Prediction (NCEP), Forecast Systems Laboratory (FSL), Air Force Weather Agency (AFWA), Naval Research Laboratory, University of Oklahoma, en